Tracking 31027 objects as of 19-Jul-2025
HD Live streaming from Space Station
objects crossing your sky now

STARLINK-30129

Track STARLINK-30129 now!
10-day predictions
STARLINK-30129 is classified as:


NORAD ID: 56689
Int'l Code: 2023-067B
Perigee: 566.0 km
Apogee: 566.4 km
Inclination: 43.0 °
Period: 95.8 minutes
Semi major axis: 6937 km
RCS: Unknown
Launch date: May 19, 2023
Source: United States (US)
Launch site: AIR FORCE EASTERN TEST RANGE (AFETR)
Your satellite tracking list
NSIGHT-1
Track 1 satellite(s)




NASA's NSSDC Master Catalog

Two Line Element Set (TLE):
1 56689U 23067B   25199.47845882 -.00000085  00000-0  87511-5 0  9995
2 56689  43.0045 107.4966 0000252 174.2481 185.8365 15.02535766119570
Source of the keplerian elements: AFSPC